Location: アルンシュタイン
(50.0000°N, 10.0000°E)
Time: 16:28:31
(UTC+02:00)

Vanguard 1 - Pass Details

Date: 18 September 2024
Orbit: 649 x 3825 km, 34.3° (Epoch: 02 October)

Event Time Altitude Azimuth Distance (km) Brightness Sun altitude
Rises 13:54:39 0° 239° (WSW) 6,402 14.7 40.8°
Reaches altitude 10° 14:00:18 10° 230° (SW) 4,805 14.4 40.6°
Maximum altitude 14:09:46 27° 179° (S) 2,604 13.9 40.1°
Drops below altitude 10° 14:15:50 10° 124° (SE) 2,985 12.8 39.8°
Sets 14:18:26 0° 111° (ESE) 3,653 13.0 39.7°
